LogoCoinalyze
    Ad-Free Version ホーム マーケット一覧 資金調達率一覧
    先物データ
    • 集計データ (コイン一覧)
    • 個別チャート
    • 全体チャート
    アラート
    TA
    Bitcoin Ethereum BNB Ripple Tron ZCash Dogecoin Monero UNUS SED LEO Chainlink Cardano Stellar Lumens Bitcoin Cash Litecoin Hedera Cronos Polkadot Ethereum Classic Algorand Quant Cosmos VeChain Dash Bitcoin SV BitTorrent Terra Decred Tezos Iota The Graph THETA Decentraland NEO Chiliz MultiversX Golem Basic Attention Token Horizen Qtum 0x DigiByte Beam FTX Token RIF Token Holo FUNToken Zilliqa Ontology Nano aelf Enjin Coin Ravencoin Mask Network Siacoin Verge Status WINk Waves IoTeX iExec RLC Power Ledger Steem Kyber Network Crystal Lisk Ark Ardor IOST WOO Network WAX Icon Storj Loopring Wanchain Bitcoin Diamond AdEx Bitcoin Gold Augur OmiseGO NEM MonaCoin BitShares Ren Komodo V Systems Nuls Mithril SOLVE Maker EOS Aion Nebulas HedgeTrade Bread Fetch.ai TomoChain Polygon Fantom Waltonchain GXChain Bytom Metaverse ETP MaidSafeCoin QASH
    注文する:
    その他
    • API
    • ローソク足パターン
    • 寄付する
    • お問い合わせ
    • サイトマップ
    • Privacy Policy
    • Disclaimer
    • Theme:
    日本語
    • English
    • Français
    • Русский
    • Deutsch
    • Türkçe
    • Nederlands
    • Português (BR)
    • Español
    • 한국어
    • 简体中文
     
    ログイン / サインアップ
    Markets/ Pepe/ PEPE to USD/ PEPEUSD Bitfinex
    Trades
    WL
    チャット
    統計
    ニュース
    ⦷
    AAA
    0.00000340 777092.87388603 13:18:19
    0.00000340 1352979.00598869 13:02:11
    0.00000342 99457853.65007310 12:22:35
    0.00000342 102200000.00000000 12:22:30
    0.00000342 102200000.00000000 12:22:30
    0.00000342 102200000.00000000 12:22:24
    0.00000342 102200000.00000000 12:22:24
    0.00000342 386492639.66343689 12:22:23
    0.00000342 134160222.51948000 12:22:22
    0.00000342 102200000.00000000 12:22:13
    0.00000342 391239865.28589457 12:22:13
    0.00000342 102200000.00000000 12:22:10
    0.00000342 91774000.00000000 12:22:09
    0.00000342 91964493.66372500 12:22:09
    0.00000342 102200000.00000000 12:22:09
    0.00000342 102200000.00000000 12:22:09
    0.00000342 102200000.00000000 12:22:07
    0.00000342 401007779.18977952 12:22:03
    0.00000342 144067356.65350541 12:22:02
    0.00000342 138645420.33514449 12:22:00
    0.00000342 21629493.97799000 12:22:00
    0.00000341 20514801.81602000 12:09:30
    0.00000341 21629493.97799000 12:08:51
    0.00000341 21629493.97799000 12:08:10
    0.00000341 21629493.97799000 12:06:04
    0.00000341 64412608.08818424 12:04:24
    0.00000341 37787391.91181577 12:04:24
    0.00000341 102200000.00000000 12:04:24
    0.00000341 21629493.97799000 12:03:54
    0.00000341 21629493.97799000 12:03:46
    0.00000341 21629493.97799000 12:03:36
    0.00000340 21629493.97799000 11:20:04
    0.00000340 21629493.97799000 11:19:45
    0.00000340 474714.75294118 11:09:42
    0.00000344 761561.21834731 08:41:37
    0.00000344 1169790.54761499 08:41:37
    0.00000345 491776.79410612 06:23:56
    0.00000345 756212.64571458 06:23:56
    0.00000345 21629493.97799000 06:22:23
    0.00000347 21629493.97799000 06:02:05
    0.00000346 698304.56507635 05:09:35
    0.00000346 1074037.72719019 05:09:35
    0.00000347 758137.30828157 04:48:26
    0.00000348 1133947.49261597 04:35:32
    0.00000346 1855924.12603199 04:16:52
    0.00000346 2853092.03514051 04:16:52
    0.00000349 21629493.97799000 03:11:05
    0.00000349 21629493.97799000 03:11:02
    0.00000349 21629493.97799000 03:11:00
    0.00000347 1404001.37826043 02:21:20
    0.00000347 1608134.06289219 02:21:19
    0.00000346 16042999.28545530 02:08:43
    0.00000346 21629493.97799000 02:08:42
    0.00000344 551310.12665092 02:05:21
    0.00000343 552843.82183253 01:50:27
    0.00000343 529653.36058712 01:50:27
    0.00000344 730083.56691211 01:47:21
    0.00000345 940998.05096280 01:43:21
    0.00000344 530198.01563394 01:40:41
    0.00000346 762525.97431871 01:00:06
    0.00000347 21629493.97799000 00:39:05
    0.00000348 411033.01819288 00:19:20
    0.00000348 631867.63890111 00:19:20
    0.00000348 21629493.97799000 00:05:19
    0.00000348 21629493.97799000 00:05:17
    0.00000348 21629493.97799000 00:05:15
    0.00000348 21629493.97799000 00:05:12
    0.00000348 21629493.97799000 00:05:10
    0.00000348 21629493.97799000 00:05:08
    0.00000348 21629493.97799000 00:05:06
    0.00000348 21629493.97799000 23:51:12
    0.00000348 887074.35244876 23:40:57
    0.00000348 1363948.77439397 23:40:57
    0.00000346 21629493.97799000 22:59:15
    0.00000345 21629493.97799000 22:45:11
    0.00000345 21629493.97799000 22:36:57
    0.00000345 543181.34373855 22:32:15
    0.00000345 407148.14301812 22:32:15
    0.00000346 21629493.97799000 22:24:59
    0.00000345 21629493.97799000 22:23:29
    0.00000345 659109.24959927 22:23:29
    0.00000346 525081.98102176 22:16:00
    0.00000346 455924.21403282 21:57:14
    0.00000346 21629493.97799000 21:32:22
    0.00000347 21629493.97799000 21:22:48
    0.00000346 102200000.00000000 21:19:27
    0.00000346 429197.18619579 21:16:05
    0.00000346 400048.15792989 21:11:57
    0.00000347 554541.09572374 21:10:02
    0.00000349 21629493.97799000 21:03:39
    0.00000349 21629493.97799000 21:01:24
    0.00000348 21629493.97799000 20:54:06
    0.00000349 21629493.97799000 20:36:55
    0.00000348 5741622.99676210 20:28:49
    0.00000348 15887870.98122790 20:28:49
    0.00000349 21629493.97799000 20:14:48
    0.00000348 21629493.97799000 20:08:01
    0.00000348 402970.91107493 20:02:48
    0.00000349 21629493.97799000 19:52:07
    0.00000349 2134905.12043058 19:50:22
    ログアウト
    AAA
    ヘルプ
    🙂 🤣 😎 🤗 😛 😉 😜 🤑 🤔 😑 😴 😕 🙃 😲 😇 🙁 😢 😬 😟 😠 🕺 🏃 💪 ✌ 👌 👍 👎 👏 👋 🤝 🍺 🍻 🐋 🐟 🦈 🗽 🚄 ✈ 🛑 🚀 🏦 🌚 ⭐ 🌞 ⚡ 🏆 💰 💲 🔨 ❓ ❗ 💯 🔶 🏁
    ☺
    ログイン または サインアップ してチャット
    24時間
    変化
    -2.86%
    出来高
    8,262,111,799
    最高値
    0.00000354
    最安値
    0.00000340
    7日間
    変化
    -10.99%
    出来高
    38,713,250,111
    最高値
    0.00000400
    最安値
    0.00000337
    30日間
    変化
    +18.06%
    出来高
    230,315,364,842
    最高値
    0.00000454
    最安値
    0.00000254
    Pepe price rallies 25% as whale demand and futures interest surge
    Key takeaways Pepe has gained 25% this week, including a combined 22% advance over the previous two days. Seven whale transactions worth more than $1 million each occurred Thursday, the highest...
    coinjournal.net
    Aug 21, 2026 08:41
    PEPE Supply on Exchanges Just Took a Massive Hit – What’s Next?
    A drop in PEPE exchange balances has added to bullish expectations despite muted trader interest.
    cryptopotato.com
    Aug 6, 2026 20:02
    PEPE Exchange Outflows Hit Nearly 2-Year High as Whales Accumulate
    Pepe (PEPE) recorded its largest single-day exchange outflow since November 2024, with 4.54 trillion tokens leaving trading platforms, signaling that holders are moving supply away from immediate...
    beincrypto.com
    Aug 6, 2026 04:57
    Meme Coin Based on White House Shooter Conspiracy Rallies 320%
    $HENRY surged 300% after a 2023 Pepe tweet appeared to name the White House shooter, fueling a viral time-travel meme. The post Meme Coin Based on White House Shooter Conspiracy Rallies 320%...
    beincrypto.com
    Apr 27, 2026 16:11
    PEPE surges 4% as market sentiment improves, eyes Key resistance breakout
    Key takeaways Pepe extends gains on Wednesday, stretching its rally from the 50-day EMA. Derivatives data show heightened retail activity as risk-on sentiment returns to the market. Pepe (PEPE) is...
    coinjournal.net
    Apr 22, 2026 11:44
    Why The PEPE Price Could Stage A 55X Rally To Reach New $0.0001 ATH
    The PEPE price has now started to edge back into bullish conversations after the recent inflows into the crypto market. The last time PEPE’s weekly chart printed the kind of structure now...
    newsbtc.com
    Apr 21, 2026 15:30
    Pepe (PEPE) surges 9%, drawing interest from whales
    Key takeaways PEPE is up 9% in the last 24 hours, making it one of the best performers among the top 50 cryptocurrencies by market cap. The rally comes amid renewed interest from whales and retail...
    coinjournal.net
    Apr 16, 2026 07:40
    Murad Says SPX6900 (SPX) Is Primed for a Rally — Is He Right This Time?
    Crypto influencer Murad Mahmudov claims SPX6900 (SPX) is stabilizing at the same market cap level where Dogecoin (DOGE) and Pepe (PEPE) consolidated before their explosive rallies. The...
    beincrypto.com
    Apr 5, 2026 21:36
    The Shiba Inu Of This Cycle: Analyst Shares Why It Is Better To Buy PEPE Now
    In the bull market cycle of 2021-2022, the Shiba Inu meme coin made waves in a way that changed the face of meme coins forever. This came after Dogecoin’s initial 36,000% rally, and Shiba Inu...
    newsbtc.com
    Apr 4, 2026 07:30
    PEPE Explodes by 18% Amid Altcoin Rally, BTC Tapped $74K: Market Watch
    The frog-themed meme coin is today's biggest gainer, followed by TAO, DOT, and BONK.
    cryptopotato.com
    Mar 16, 2026 10:56
    Should PEPE traders brace for volatility as short squeeze potential builds?
    The memecoin market has seen its collective market capitalization drop by 48% over the past year, and 6.9% over the past month, according to CoinMarketCap. According to Glassnode, the memecoin...
    ambcrypto.com
    Mar 7, 2026 18:00
    チャットでコマンドを入力するだけです。 nick1を実際のニックネームに置き換えてください
    • /ignore nick1 チャットユーザーを無視する
    • /unignore nick1 チャットユーザーを無視しない
    • /ignorelist 無視したチャットユーザーを表示する